Location: Burleson Fire Department Station 2
(32.5391°N, 97.3075°W)
Time: 19:45:45
(UTC+00:00)

NOAA 15 - Visible Passes

Search period start: 05 December 2024 00:00
Search period end: 15 December 2024 00:00
Orbit: 795 x 810 km, 98.6° (Epoch: 05 December)

Date Brightness Start Highest point End Pass type
(mag) Time Alt. Az. Time Alt. Az. Time Alt. Az.
05 Dec 5.7 00:16:38 10° ESE 00:20:32 21° ENE 00:24:26 10° NNE visible
05 Dec 5.9 01:55:02 10° SSW 01:59:56 39° W 02:04:52 10° NNW visible
05 Dec 8.1 12:38:04 10° E 12:38:58 10° E 12:39:52 10° ESE visible
05 Dec 6.3 23:53:07 10° E 23:54:55 12° ENE 23:56:43 10° NE visible
06 Dec 4.7 01:28:41 10° S 01:33:58 72° WSW 01:39:15 10° NNW visible
07 Dec 4.5 01:02:51 10° SSE 01:08:04 63° ENE 01:13:18 10° N visible
07 Dec 7.5 02:46:03 10° WSW 02:48:07 12° W 02:50:11 10° WNW visible
08 Dec 5.1 00:37:32 10° SE 00:42:16 34° ENE 00:47:00 10° N visible
08 Dec 6.7 02:17:50 10° SSW 02:21:58 23° W 02:26:08 10° NW visible
09 Dec 5.8 00:12:52 10° ESE 00:16:33 20° ENE 00:20:15 10° NNE visible
09 Dec 5.7 01:50:56 10° S 01:55:55 42° W 02:00:56 10° NNW visible
09 Dec 6.3 23:49:55 10° ENE 23:50:57 11° ENE 23:52:00 10° NE visible
10 Dec 4.6 01:24:40 10° S 01:29:57 79° WSW 01:35:15 10° NNW visible
11 Dec 4.6 00:58:54 10° SSE 01:04:04 57° ENE 01:09:14 10° N visible
11 Dec 7.4 02:41:31 10° WSW 02:44:03 14° W 02:46:37 10° WNW visible
12 Dec 5.2 00:33:40 10° SE 00:38:16 31° ENE 00:42:53 10° N visible
12 Dec 6.6 02:13:37 10° SSW 02:17:56 25° W 02:22:15 10° NW visible
13 Dec 5.9 00:09:07 10° ESE 00:12:34 18° ENE 00:16:01 10° NNE visible
13 Dec 5.5 01:46:49 10° S 01:51:53 46° W 01:56:57 10° NNW visible
14 Dec 4.5 01:20:38 10° SSE 01:25:55 86° WSW 01:31:14 10° NNW visible
